Preview of NWS' New Version of Forecast
This preview is not operational and should not be used for support decisions.

Regional Weather Roundup (RWR)

Issued by National Weather Service (NWS)

                            
000
ASUS44 KMEG 190910
RWRTN 
TENNESSEE HOURLY STATE WEATHER ROUNDUP
NATIONAL WEATHER SERVICE MEMPHIS TN
300 AM CST TUE FEB 19 2019

TNZ002-004-019-021-049-052-054-088>092-191000-
WEST TENNESSEE
  
CITY           SKY/WX    TMP DP  RH WIND       PRES   REMARKS
MEMPHIS INTL   MOCLDY    33  25  72 NE13      30.44F WCI  24          
NWS MEMPHIS      N/A     32 N/A N/A MISG        N/A                   
JACKSON        FAIR      31  24  75 NE8       30.48S WCI  23          
DYERSBURG      FAIR      31  25  78 NE9       30.51F WCI  23          
COVINGTON      CLEAR     32  27  80 NE12G18   30.48S WCI  23          
UNION CITY     CLEAR     30  23  74 NE7       30.51S WCI  23          
PARIS          CLEAR     30  23  74 NE8       30.49F WCI  23          
SELMER         CLEAR     30  25  80 NE8       30.42F WCI  23          
SAVANNAH       CLEAR     32  27  80 NE8       30.43F WCI  25          
$$

TNZ008-025-027-028-033-062-065-066-191000-
NORTH MIDDLE TENNESSEE
  
CITY           SKY/WX    TMP DP  RH WIND       PRES   REMARKS
NASHVILLE      MOCLDY    31  22  69 NE8       30.49F WCI  23          
DICKSON        MOSUNNY   28  23  80 VRB5      30.47S WCI  23          
CLARKSVILLE    FAIR      30  21  69 NE7       30.52S WCI  23          
LEBANON        SUNNY     30  25  80 N6        30.48F WCI  24          
SMYRNA         FAIR      31  25  78 NE8       30.50F WCI  23          
MURFREESBORO   MOSUNNY   30  25  80 N7        30.46F WCI  23          
COOKEVILLE     CLEAR     30  25  80 N3        30.45S                  
LIVINGSTON     SUNNY     28  23  80 NE6       30.45R WCI  22          
GALLATIN       SUNNY     30  25  80 N9        30.53S WCI  22          
CROSSVILLE     FAIR      27  21  78 NE6       30.41F WCI  20          
ROCKWOOD       SUNNY     28  25  86 CALM      30.42S                  
$$

TNZ061-075-076-078-094-096-097-191000-
SOUTH MIDDLE TENNESSEE
  
CITY           SKY/WX    TMP DP  RH WIND       PRES   REMARKS
LAWRENCEBURG   SUNNY     32  23  69 NE9G15    30.41S WCI  24          
LEWISBURG      SUNNY     30  25  80 NE7G13    30.45S WCI  23          
FAYETTEVILLE   MOCLDY    32  27  80 N13       30.39F WCI  22          
TULLAHOMA      CLEAR     32  25  74 NE8       30.42S WCI  25          
WINCHESTER     CLEAR     32  27  80 NE7       30.41F WCI  26          
MCMINNVILLE    CLEAR     30  25  80 NE7       30.44F WCI  23          
COLUMBIA       CLEAR     32  25  74 NE7       30.44F WCI  26          
SHELBYVILLE    CLEAR     30  27  86 N8        30.45F WCI  23          
$$

TNZ017-018-042-046-047-191000-
NORTHEAST TENNESSEE
  
CITY           SKY/WX    TMP DP  RH WIND       PRES   REMARKS
TRI CITIES     MOCLDY    29  24  82 CALM      30.46F                  
ELIZABETHTON   FAIR      30  27  86 CALM      30.45S                  
GREENEVILLE    SUNNY     30  21  69 NE8       30.43S WCI  23          
$$

TNZ012-013-036-069-073-074-191000-
CENTRAL EAST TENNESSEE
  
CITY           SKY/WX    TMP DP  RH WIND       PRES   REMARKS
KNOXVILLE      CLOUDY    32  24  72 NE7       30.45S WCI  26          
OAK RIDGE      FAIR      33  24  69 VRB5      30.48S WCI  29          
DOWNTOWN KNOXV CLEAR     34  25  69 CALM      30.48S                  
GATLINBURG     CLEAR     32  25  74 E6        30.46R WCI  26          
MORRISTOWN     CLEAR     32  23  69 NE6       30.44S WCI  26          
JACKSBORO      CLEAR     28  27  93 CALM      30.50S                  
$$

TNZ083-085-099-191000-
SOUTHEAST TENNESSEE
  
CITY           SKY/WX    TMP DP  RH WIND       PRES   REMARKS
CHATTANOOGA    FAIR      35  24  64 N14       30.44F WCI  26          
DAYTON         SUNNY     34  27  75 VRB5      30.45F WCI  30          
$$

SKY/WX REPORTED AS FAIR MEANS FEW OR NO CLOUDS BELOW
12 THOUSAND FEET.